Погода в Ире

Россия / Республика Северная Осетия — Алания     43°03′48″N   44°44′28″E
темп.,
°C
ветер,
м/с
пор.,
м/с
влажн.,
%
обл.,
%
осадки,
мм/ч
давл.,
гПа
погр.,
м
7 мая, пт
пт700:00+9ююз1172100 0.0 101317
03:00+8ююз117629 0.0 101415
06:00+10ю116358 0.0 101430
09:00+15сз2350100 0.0 1015576
12:00+17сз334532 0.0 10151091
15:00+18ссз32395 0.0 10161672
18:00+15с23585 0.0 1017340
21:00+10ю21745 0.0 102019
8 мая, сб
сб800:00+9ю22715 0.0 102021
03:00+9ююв22693 0.0 101925
06:00+11ююв11662 0.0 101841
09:00+17с224836 0.0 1015805
12:00+20ссв434422 0.0 10141257
15:00+20ссв4347100 0.0 10131307
18:00+17св2466100 0.0 1013343
21:00+13ююв22740 0.0 101329
9 мая, вс
вс900:00+12ю22625 0.0 101226
03:00+11ю2263100 0.0 101032
06:00+13ююз1162100 0.0 100927
09:00+19ссз224399 0.0 1008615
12:00+21ссз43459 0.0 10071525
15:00+18ссз4469100 0.4 1007884
18:00+6зсз2696100 8.4 1017542
21:00+5зюз2695100 11.8 1021888
10 мая, пн
пн1000:00+3ююз2497100 3.9 1024487
03:00+3юз3593100 6.7 1024522
06:00+3ююз248996 0.9 1024328
09:00+7з1361100 1.1 10221372
12:00+7с2364100 0.4 10211238
15:00+9св115697 1.0 10191404
18:00+7вюв227074 0.4 1020665
21:00+4зсз2498100 1.8 1023432
11 мая, вт
вт1100:00+3зсз119697 0.9 1022355
03:00+2юв129381 0.9 1021195
06:00+3всв128953 0.1 1021192
09:00+8всв346858 0.1 1018778
12:00+11св335698 0.0 10161251
15:00+11св2362100 0.0 10161043
18:00+10ссв236990 0.0 1017470
21:00+7юв228663 0.0 101972